Regional Weather Roundup
Issued by NWS

Home | Current Version | Previous Version | Text Only | Print | Product List | Glossary Off
Versions: 1 2 3 4 5 6 7 8 9 10 11 12 13 14 15 16 17 18 19 20 21 22 23 24 25 26 27 28

000
ASUS45 KBOI 232010
RWRID

IDAHO REGIONAL WEATHER ROUNDUP
NATIONAL WEATHER SERVICE BOISE ID
200 PM MDT THU MAR 23 2017

NOTE: "FAIR" INDICATES FEW OR NO CLOUDS BELOW 12000 FEET
WITH NO SIGNIFICANT WEATHER AND/OR OBSTRUCTIONS TO VISIBILITY

IDZ012-014-232100-
SOUTHWEST IDAHO


CITY           SKY/WX    TMP DP  RH WIND       PRES   REMARKS
BOISE          SUNNY     52  28  39 W18G24    30.04S
CALDWELL       SUNNY     53  31  42 W12       30.06S
MOUNTAIN HOME  SUNNY     55  29  38 NW24G33   30.02R
$$

IDZ016-017-232100-
SOUTHCENTRAL IDAHO


CITY           SKY/WX    TMP DP  RH WIND       PRES   REMARKS
BURLEY         LGT RAIN  50  31  48 W21G36    29.92R
JEROME         SUNNY     50  29  44 W29G39    29.94S
TWIN FALLS     SUNNY     49  27  42 W30G40    29.95S
$$

IDZ019>023-232100-
SOUTHEAST IDAHO


CITY           SKY/WX    TMP DP  RH WIND       PRES   REMARKS
IDAHO FALLS    MOSUNNY   52  30  43 NW16      29.84S
POCATELLO      MOSUNNY   45  37  73 W23       29.91S
REXBURG        CLOUDY    52  27  38 NE9G17    29.83S
$$

IDZ006-010-011-018-031-032-232100-
CENTRAL IDAHO MOUNTAINS


CITY           SKY/WX    TMP DP  RH WIND       PRES   REMARKS
MCCALL         SUNNY     41  23  48 SW8       29.97S
HAILEY         MOSUNNY   50  25  37 SW7       29.90S
STANLEY          N/A     41  18  39 N8        29.95S
SALMON         MOSUNNY   52  21  30 N6        29.92F
CHALLIS        SUNNY     51  20  29 W8        29.91F
$$

IDZ002-004-006-007-026-232100-
NORTHERN IDAHO


CITY           SKY/WX    TMP DP  RH WIND       PRES   REMARKS
LEWISTON       MOSUNNY   52  34  50 CALM      30.08F
LOWELL           N/A     53  35  50 S8        30.08F
COEUR D`ALENE  CLOUDY    44  30  57 S7        30.07F
MULLAN PASS    PTSUNNY   27  26  96 SW6       29.99R WCI  20
$$




USA.gov is the U.S. government's official web portal to all federal, state and local government web resources and services.